Regional Weather Roundup
Issued by NWS

Home | Current Version | Previous Version | Graphics & Text | Print | Product List | Glossary On
Versions: 1 2 3 4 5 6 7 8 9 10 11 12 13 14 15 16 17 18 19 20 21 22 23 24 25 26 27 28 29 30 31 32 33 34 35 36 37 38 39 40 41 42 43 44 45 46 47 48 49 50
000
ASUS43 KDTX 171810
RWRMI
MICHIGAN HOURLY REGIONAL WEATHER ROUNDUP
NATIONAL WEATHER SERVICE DETROIT/PONTIAC MI
ISSUED BY NATIONAL WEATHER SERVICE GRAND RAPIDS MI
100 PM EST TUE JAN 17 2017

NOTE: "FAIR" INDICATES FEW OR NO CLOUDS BELOW 12,000 FEET WITH NO
SIGNIFICANT WEATHER AND/OR OBSTRUCTION TO VISIBILITY.

MIZ047>049-052>055-059>063-066>070-074>076-081>083-171900-
SOUTHEAST LOWER MICHIGAN

CITY           SKY/WX    TMP DP  RH WIND       PRES   REMARKS
ADRIAN         CLOUDY    46  46 100 W8        29.78F
6HR MIN TEMP:  34; 6HR MAX TEMP:  46; 6HR PCP:  0.15;

ALMA           LGT RAIN  34  33  99 CALM      29.79S VSB 3/4
ANN ARBOR      CLOUDY    44  44 100 SW8       29.76S FOG
BAD AXE        FOG       35  35  99 E3        29.76F VSB 3/4
6HR MIN TEMP:  33; 6HR MAX TEMP:  35;

DETROIT CITY   CLOUDY    41  41 100 CALM      29.76S FOG
DETROIT        CLOUDY    46  44  93 SW10      29.77F FOG
6HR MIN TEMP:  35; 6HR MAX TEMP:  46; 6HR PCP:  0.11;

FLINT          FOG       37  37 100 CALM      29.76S VSB 1/4
6HR MIN TEMP:  35; 6HR MAX TEMP:  37; 6HR PCP:  0.18;

GROSSE ILE     CLOUDY    46  46  97 W12       29.76S
6HR MIN TEMP:  36; 6HR MAX TEMP:  46; 6HR PCP:  0.19;

HILLSDALE      CLOUDY    41  41 100 W12       29.77S FOG
HOWELL         FOG       40  39  97 W7        29.75S VSB 1/4 WCI  35

CITY           SKY/WX    TMP DP  RH WIND       PRES   REMARKS
JACKSON        CLOUDY    44  42  93 W14       29.76S
6HR MIN TEMP:  35; 6HR MAX TEMP:  45; 6HR PCP:  0.01;

LANSING        FOG       37  35  92 CALM      29.77S VSB 1/2
6HR MIN TEMP:  35; 6HR MAX TEMP:  37; 6HR PCP:  0.17;

MASON          FOG       39  39 100 CALM      29.76S VSB 1/4
MONROE         CLOUDY    47  47 100 SW12      29.76F
6HR MIN TEMP:  36; 6HR MAX TEMP:  50; 6HR PCP:  0.35;

MT. CLEMENS    FOG       39  39 100 SW3       29.74S VSB 5/16
6HR MIN TEMP:  34; 6HR MAX TEMP:  39; 6HR PCP:  0.11;

PONTIAC        FOG       36  35  96 CALM      29.73F VSB 1/16
6HR MIN TEMP:  33; 6HR MAX TEMP:  36; 6HR PCP:  0.15;

PORT HOPE        N/A     34  34 100 E10       29.76F WCI  26
6HR MIN TEMP:  34; 6HR MAX TEMP:  35; 6HR PCP:  0.40;

PORT HURON     DRZL/FOG  39  39 100 CALM      29.75F VSB 1
TRI CITIES     FOG       34  34 100 N3        29.78S VSB 3/4
6HR MIN TEMP:  33; 6HR MAX TEMP:  34; 6HR PCP:  0.24;

YPSILANTI      CLOUDY    44  44 100 SW12      29.77S FOG
6HR MIN TEMP:  34; 6HR MAX TEMP:  43; 6HR PCP:  0.09;

$$
MIZ043>046-050>051-056>058-064>065-071>073-077>080-171900-
SOUTHWEST LOWER MICHIGAN

CITY           SKY/WX    TMP DP  RH WIND       PRES   REMARKS
BATTLE CREEK   CLOUDY    40  40 100 W12       29.79R FOG     WCI  33
6HR MIN TEMP:  40; 6HR MAX TEMP:  45; 6HR PCP: TRACE;

BENTON HARBOR  CLOUDY    38  37  97 W12       29.84R FOG     WCI  30
6HR MIN TEMP:  38; 6HR MAX TEMP:  48;

BIG RAPIDS     CLOUDY    33  32  96 E6        29.78S FOG     WCI  28
6HR MIN TEMP:  32; 6HR MAX TEMP:  33; 6HR PCP:  0.10;

COLDWATER      CLOUDY    42  42 100 W9        29.79S FOG
6HR MIN TEMP:  40; 6HR MAX TEMP:  48;

HOLLAND        FOG       38  37  97 W10       29.79R VSB 3/4 WCI  31
6HR MIN TEMP:  36; 6HR MAX TEMP:  39; 6HR PCP:  0.01;

GRAND RAPIDS   FOG       35  33  92 NE5       29.78S VSB 3/4 WCI  31
6HR MIN TEMP:  34; 6HR MAX TEMP:  36; 6HR PCP:  0.03;

KALAMAZOO      CLOUDY    40  37  89 W13       29.80S FOG     WCI  32
6HR MIN TEMP:  40; 6HR MAX TEMP:  45; 6HR PCP: TRACE;

MARSHALL       CLOUDY    42  42  99 W14G21    29.78R
6HR MIN TEMP:  38; 6HR MAX TEMP:  46; 6HR PCP:  0.02;

MOUNT PLEASANT FOG       33  33  98 CALM      29.78S VSB 1/2
6HR MIN TEMP:  32; 6HR MAX TEMP:  34; 6HR PCP:  0.11;

MUSKEGON       DRZL/FOG  37  36  96 N3        29.80S VSB 1
6HR MIN TEMP:  36; 6HR MAX TEMP:  38; 6HR PCP:  0.14;

STURGIS        CLOUDY    42  41  97 W12       29.80S
6HR MIN TEMP:  41; 6HR MAX TEMP:  48;

$$
MIZ016>042-171900-
NORTHERN LOWER MICHIGAN

CITY           SKY/WX    TMP DP  RH WIND       PRES   REMARKS
ALPENA         MIX PCPN  35  33  92 E12       29.85F VSB 1   WCI  27
6HR MIN TEMP:  33; 6HR MAX TEMP:  35; 6HR PCP:  0.14;

BEAVER ISLAND  LGT SNOW  32  32 100 E9G17     29.85F WCI  24
BELLAIRE       CLOUDY    36  33  88 NE6       29.81F WCI  31
6HR MIN TEMP:  35; 6HR MAX TEMP:  37;

CADILLAC       CLOUDY    33  33  96 E6        29.77S FOG     WCI  28
CHARLEVOIX     CLOUDY    35  34  96 E10       29.84F WCI  27
6HR MIN TEMP:  32; 6HR MAX TEMP:  35;

GAYLORD        FOG       33  31  92 E8        29.79F VSB 3/4 WCI  26
6HR MIN TEMP:  33; 6HR MAX TEMP:  35; 6HR PCP: TRACE;

HOUGHTON LAKE  CLOUDY    35  33  92 E8        29.78S WCI  29
6HR MIN TEMP:  33; 6HR MAX TEMP:  35; 6HR PCP:  0.13;

MANISTEE       MIX PCPN  37  35  92 CALM      29.80S FOG
OSCODA         LGT SNOW  36  35  96 NE7       29.80F WCI  30
6HR MIN TEMP:  35; 6HR MAX TEMP:  36; 6HR PCP:  0.03;

PELLSTON       CLOUDY    34  31  88 E13       29.85F FOG     WCI  25
6HR MIN TEMP:  32; 6HR MAX TEMP:  35; 6HR PCP:  0.02;

TRAVERSE CITY  CLOUDY    37  35  92 CALM      29.80F
6HR MIN TEMP:  36; 6HR MAX TEMP:  37; 6HR PCP:  0.02;

LUDINGTON      FOG       36  36 100 CALM      29.80R VSB 1
6HR MIN TEMP:  34; 6HR MAX TEMP:  36; 6HR PCP:  0.01;

$$
MIZ007>008-015-171900-
EASTERN UPPER MICHIGAN

CITY           SKY/WX    TMP DP  RH WIND       PRES   REMARKS
KINROSS        CLOUDY    33  28  81 E13       29.88  WCI  24
6HR MIN TEMP:  27; 6HR MAX TEMP:  33;

MACKINAC ISLAN CLOUDY    32  32 100 E14G22    29.85F WCI  22
6HR MIN TEMP:  32; 6HR MAX TEMP:  33;

NEWBERRY       CLOUDY    33  30  90 E7        29.87S WCI  26
6HR MIN TEMP:  25; 6HR MAX TEMP:  33;

S. S. MARIE    CLOUDY    35  25  66 E8        29.89F WCI  29
6HR MIN TEMP:  27; 6HR MAX TEMP:  35;

$$
MIZ004>006-011>014-085-171900-
CENTRAL UPPER MICHIGAN

CITY           SKY/WX    TMP DP  RH WIND       PRES   REMARKS
MANISTIQUE     CLOUDY    33  32  97 E7        29.87S WCI  27
6HR MIN TEMP:  29; 6HR MAX TEMP:  33; 6HR PCP:  0.01;

ESCANABA       MIX PCPN  34  34 100 NE8       29.87F FOG     WCI  27
6HR MIN TEMP:  29; 6HR MAX TEMP:  34; 6HR PCP:  0.04;

SAWYER-GWINN   CLOUDY    34  28  80 N7        29.87F WCI  28
$$
MIZ001>003-009>011-084-171900-
WESTERN UPPER MICHIGAN

CITY           SKY/WX    TMP DP  RH WIND       PRES   REMARKS
IRON MOUNTAIN  CLOUDY    36  30  79 N5        29.84F WCI  32
6HR MIN TEMP:  27; 6HR MAX TEMP:  37; 6HR PCP: TRACE;

HOUGHTON       SUNNY     37  22  54 CALM      29.89F
6HR MIN TEMP:  30; 6HR MAX TEMP:  37;

COPPER HARBOR    N/A     38  24  57 SW6       29.91F WCI  33
6HR MIN TEMP:  26; 6HR MAX TEMP:  38;

IRONWOOD       CLOUDY    31  25  78 W3        29.91F
6HR MIN TEMP:  19; 6HR MAX TEMP:  35;

$$

ABBREVIATIONS USED IN REMARKS
   TC - TEMPERATURE IN CELSIUS
  WCI - WIND CHILL INDEX
   HX - HEAT INDEX
  VSB - VISIBILITY




USA.gov is the U.S. government's official web portal to all federal, state and local government web resources and services.